CAPE
0 0 0 0 0 0 0 0 0 0 0 0 0 0 0 0 0 0 0 0 3 103 635 808 581 399 305 214 264 276 352 448 664 479 131 41 7 5 2 7 8 9 12 9 7 6 6 5 7
0 0 0 0 0 0 0 0 0 0 0 0 0 0 0 0 0 0 0 0 42 157 641 689 330 308 285 110 88 166 138 229 614 397 80 17 4 4 5 9 6 11 19 19 4 6 8 5 7
0 0 0 0 0 0 0 0 0 0 0 0 0 0 0 0 0 0 0 0 80 154 639 561 245 278 171 142 68 30 62 57 578 256 66 1 3 3 3 6 7 6 17 17 8 5 8 6 8
0 0 0 0 0 0 0 0 0 0 0 0 0 0 0 0 0 0 0 0 19 308 566 500 296 263 166 62 23 32 84 63 267 185 68 2 0 1 1 8 2 9 11 18 14 6 4 8 12
0 0 0 0 0 0 0 0 0 0 0 0 0 0 0 0 0 0 0 0 22 262 582 420 134 128 80 14 3 10 57 75 254 250 61 0 0 1 1 4 1 4 7 15 13 14 11 15 12
0 0 0 0 0 0 0 0 0 0 0 0 0 0 0 0 0 0 0 0 62 163 494 424 125 108 45 5 4 0 6 26 158 145 12 0 1 0 0 4 3 2 27 28 21 17 10 10 7
0 0 0 0 0 0 0 0 0 0 0 0 0 0 0 0 5 0 0 10 101 145 339 406 247 111 1 0 0 0 0 0 32 40 0 3 2 1 0 0 3 1 11 21 15 2 7 7 10
0 0 0 0 0 0 0 0 0 0 0 0 0 0 0 0 29 0 0 13 70 123 274 365 236 73 0 0 0 0 0 0 0 0 0 0 2 0 0 1 1 3 6 11 16 3 1 0 0
0 0 0 0 0 0 0 0 0 0 0 0 0 0 0 0 17 0 0 0 31 74 172 284 228 86 1 0 0 0 0 0 0 0 0 0 0 0 0 0 2 2 2 6 6 2 1 0 0
0 0 0 0 0 0 0 0 0 0 0 0 0 0 0 0 27 0 0 0 1 23 86 156 210 130 30 0 0 0 0 0 0 0 0 0 0 0 0 0 2 1 2 4 3 1 0 0 0
0 0 0 0 0 0 0 0 0 0 0 0 0 0 0 0 11 9 1 0 0 0 42 80 115 117 80 13 0 0 0 0 0 0 0 0 0 0 0 0 0 0 0 0 0 0 0 0 0
0 0 0 0 0 0 0 0 0 0 0 0 0 0 0 0 0 0 0 0 5 16 7 44 78 93 81 39 0 0 0 0 0 0 0 0 0 0 0 0 0 0 0 0 0 0 0 0 0
0 0 0 0 0 0 0 0 0 0 0 0 0 0 0 0 0 0 0 7 61 117 80 67 80 66 67 36 14 1 1 0 0 0 0 0 0 0 0 0 0 0 0 0 0 0 0 0 0
0 0 0 0 0 0 0 0 0 0 0 0 0 0 0 0 0 0 0 9 31 105 96 122 106 84 49 49 5 2 1 0 0 0 0 0 0 0 0 0 0 0 0 0 0 0 0 0 0
0 0 0 0 0 0 0 0 0 0 0 0 0 0 0 0 0 0 0 0 0 21 55 67 80 63 38 37 0 1 1 0 0 0 0 0 0 0 0 0 0 0 0 0 0 0 0 0 0
0 0 0 0 0 0 0 0 0 0 0 0 0 0 0 0 0 0 0 0 0 0 12 39 22 40 45 13 0 0 0 0 0 0 0 0 0 0 0 0 0 0 0 0 0 0 0 0 0
0 0 0 0 0 0 0 0 0 0 0 0 0 0 0 0 0 0 0 0 0 0 0 3 21 38 36 32 14 1 0 0 1 0 0 0 0 0 0 0 0 0 0 0 0 0 0 0 0
0 0 0 0 0 0 0 0 0 0 0 0 0 0 0 0 0 0 0 0 0 0 0 0 1 28 15 37 24 2 1 1 1 2 0 0 0 0 0 0 0 0 0 0 0 0 0 0 0
0 0 0 0 0 0 0 0 0 0 0 0 0 0 0 0 0 0 0 0 0 0 0 0 0 0 14 27 50 42 49 19 4 2 0 0 0 0 0 0 0 0 0 0 0 0 0 0 0
0 0 0 0 0 0 0 0 0 0 0 0 0 0 0 0 0 0 0 0 0 0 0 0 0 0 0 12 48 70 45 33 27 8 2 0 0 0 0 0 0 0 0 0 0 0 0 0 0
0 0 0 0 0 0 0 0 0 0 0 0 0 0 0 0 0 0 0 0 0 0 0 0 0 0 0 0 1 0 0 1 39 20 11 1 0 0 0 0 0 0 0 0 0 0 0 0 0
0 0 0 0 0 0 0 0 0 0 0 0 0 0 0 0 0 0 0 0 0 0 0 0 0 0 0 0 0 0 6 20 39 40 13 3 0 0 1 0 0 1 0 2 0 0 0 0 0
0 0 0 0 0 0 0 0 0 0 0 0 0 0 0 0 0 0 0 0 0 0 0 0 0 0 0 0 0 0 0 4 0 0 6 6 0 0 0 0 1 2 3 1 1 1 2 0 1
0 0 0 0 0 0 0 0 0 0 0 0 0 0 0 0 0 0 0 0 0 0 0 0 0 0 0 0 0 0 0 0 0 0 0 0 1 0 0 0 1 1 2 2 2 1 2 2 1
0 0 0 0 0 0 0 0 0 0 0 0 0 0 0 0 0 0 0 0 0 0 0 0 0 0 0 0 0 0 0 0 0 0 0 0 0 0 1 0 2 1 1 1 2 2 2 0 2
0 0 0 0 0 0 0 0 0 0 0 0 0 0 0 0 0 0 0 0 0 0 0 0 0 0 0 0 0 0 0 0 0 0 0 0 0 0 0 1 1 1 1 1 1 1 1 3 2
0 0 0 0 0 0 0 0 0 0 0 0 0 0 0 0 0 0 0 0 0 0 0 0 0 0 0 0 0 0 0 0 0 0 0 0 0 0 0 0 0 0 0 1 0 0 0 0 1
0 0 0 0 0 0 0 0 0 0 0 0 0 0 0 0 0 0 0 0 0 0 0 0 0 0 0 0 0 0 0 0 0 0 0 0 0 0 0 0 0 0 0 0 2 3 2 0 1
0 0 0 0 0 0 0 0 0 0 0 0 0 0 0 0 0 0 0 0 0 0 0 0 0 0 0 0 0 0 0 0 0 0 0 0 0 0 0 0 0 0 0 0 0 0 1 1 1
0 0 0 0 0 0 0 0 0 0 0 0 0 0 0 0 0 0 0 0 0 0 0 0 0 0 0 0 0 0 0 0 0 0 0 0 0 0 0 0 0 0 0 0 0 0 0 1 1
CIN
0 0 0 0 0 0 0 0 0 0 0 0 0 0 0 0 0 0 0 0 -80 -102 -5 0 -10 -48 -75 -81 -53 -41 -28 -1 0 -4 -28 -80 -95 0 0 -1 0 0 -1 -1 -1 -1 0 -1 -2
0 0 0 0 0 0 0 0 0 0 0 0 0 0 0 0 0 0 0 0 -214 -90 -22 -15 -56 -68 -75 -121 -116 -76 -60 -24 0 -2 -29 -125 0 0 0 0 0 -2 -3 -1 -4 0 0 0 -1
0 0 0 0 0 0 0 0 0 0 0 0 0 0 0 0 0 0 0 0 -179 -101 -22 -35 -80 -67 -96 -105 -128 -136 -99 -76 0 -10 -55 0 0 0 0 -1 -1 -1 -3 -4 -2 0 0 0 0
0 0 0 0 0 0 0 0 0 0 0 0 0 0 0 0 0 0 0 0 -257 -59 -22 -37 -74 -73 -98 -125 -138 -112 -66 -57 -5 -10 -54 -165 0 0 0 -1 -2 -1 -1 -2 -2 0 0 -1 -3
0 0 0 0 0 0 0 0 0 0 0 0 0 0 0 0 0 0 0 0 -301 -108 -21 -53 -123 -123 -112 -136 -31 -49 -73 -49 -7 -5 -70 0 0 0 0 0 -1 -1 -2 -2 -1 0 0 -6 -6
0 0 0 0 0 0 0 0 0 0 0 0 0 0 0 0 0 0 0 0 -263 -175 -45 -49 -130 -133 -154 -87 -74 0 -63 -105 -31 -30 -67 0 0 0 0 0 0 0 -3 -3 0 0 -8 -4 -4
0 0 0 0 0 0 0 0 0 0 0 0 0 0 0 0 -437 0 0 -371 -254 -194 -81 -45 -87 -141 -50 0 0 0 0 0 -106 -119 0 0 0 0 0 0 -1 0 -3 -3 0 0 -9 -5 -5
0 0 0 0 0 0 0 0 0 0 0 0 0 0 0 0 -469 0 0 -420 -296 -233 -124 -76 -120 -206 0 0 0 0 0 0 0 0 0 0 0 0 0 -1 -1 0 -1 -1 -2 0 -1 0 0
0 0 0 0 0 0 0 0 0 0 0 0 0 0 0 0 -512 0 0 0 -377 -286 -178 -108 -137 -220 -20 0 0 0 0 0 0 0 0 0 0 0 0 0 -1 0 0 -1 -2 -1 0 0 0
0 0 0 0 0 0 0 0 0 0 0 0 0 0 0 0 -445 0 0 0 -38 -398 -278 -187 -144 -204 -297 0 0 0 0 0 0 0 0 0 0 0 0 0 -2 -1 0 -1 -2 0 0 0 0
0 0 0 0 0 0 0 0 0 0 0 0 0 0 0 0 -483 -471 -130 0 0 0 -362 -280 -231 -221 -249 -302 0 0 0 0 0 0 0 0 0 0 0 0 0 0 -1 -3 -1 0 0 0 0
0 0 0 0 0 0 0 0 0 0 0 0 0 0 0 0 0 0 0 -56 -455 -446 -475 -387 -316 -272 -276 -327 -33 0 0 0 0 0 0 0 0 0 0 0 0 0 0 0 0 0 0 0 0
0 0 0 0 0 0 0 0 0 0 0 0 0 0 0 0 0 0 0 -492 -406 -318 -364 -379 -340 -343 -323 -361 -394 0 0 0 0 0 0 0 0 0 0 0 0 0 0 0 0 0 0 0 0
0 0 0 0 0 0 0 0 0 0 0 0 0 0 0 0 0 0 0 -471 -470 -373 -373 -327 -341 -344 -345 -322 -259 0 0 0 0 0 0 0 0 0 0 0 0 0 0 0 0 0 0 0 0
0 0 0 0 0 0 0 0 0 0 0 0 0 0 0 0 0 0 0 0 0 -469 -427 -393 -356 -359 -370 -331 -20 -1 0 0 0 0 0 0 0 0 0 0 0 0 0 0 0 0 0 0 0
0 0 0 0 0 0 0 0 0 0 0 0 0 0 0 0 0 0 0 0 0 0 -458 -455 -450 -384 -347 -371 -1 0 0 0 0 0 0 0 0 0 0 0 0 0 0 0 0 0 0 0 0
0 0 0 0 0 0 0 0 0 0 0 0 0 0 0 0 0 0 0 0 0 0 0 -519 -465 -408 -399 -390 -435 -83 -3 -1 0 0 0 0 0 0 0 0 0 0 0 0 0 0 0 0 0
0 0 0 0 0 0 0 0 0 0 0 0 0 0 0 0 0 0 0 0 0 0 0 0 -39 -475 -456 -411 -423 -52 0 0 -1 0 0 0 0 0 0 0 0 0 0 0 0 0 0 0 0
0 0 0 0 0 0 0 0 0 0 0 0 0 0 0 0 0 0 0 0 0 0 0 0 0 0 -521 -434 -394 -412 -390 -451 -280 0 0 0 0 0 0 0 0 0 0 0 0 0 0 0 0
0 0 0 0 0 0 0 0 0 0 0 0 0 0 0 0 0 0 0 0 0 0 0 0 0 0 0 -554 -459 -413 -421 -438 -402 -452 0 0 0 0 0 0 0 0 0 0 0 0 0 0 0
0 0 0 0 0 0 0 0 0 0 0 0 0 0 0 0 0 0 0 0 0 0 0 0 0 0 0 0 -84 0 0 -65 -376 -409 -431 0 0 0 0 0 0 0 0 0 0 0 0 0 0
0 0 0 0 0 0 0 0 0 0 0 0 0 0 0 0 0 0 0 0 0 0 0 0 0 0 0 0 0 0 -446 -470 -376 -332 -360 -235 -1 0 0 0 -60 -161 0 0 0 0 0 0 0
0 0 0 0 0 0 0 0 0 0 0 0 0 0 0 0 0 0 0 0 0 0 0 0 0 0 0 0 0 0 0 -420 0 0 -299 -267 0 -5 0 0 0 0 0 0 0 0 0 0 0
0 0 0 0 0 0 0 0 0 0 0 0 0 0 0 0 0 0 0 0 0 0 0 0 0 0 0 0 0 0 0 0 0 0 0 0 0 0 0 -5 0 0 0 0 0 0 0 0 0
0 0 0 0 0 0 0 0 0 0 0 0 0 0 0 0 0 0 0 0 0 0 0 0 0 0 0 0 0 0 0 -2 -2 -1 0 0 0 0 -29 -6 -25 -19 0 0 0 0 0 0 0
0 0 0 0 0 0 0 0 0 0 0 0 0 0 0 0 0 0 0 0 0 0 0 0 0 0 0 0 0 0 0 0 0 0 0 0 0 0 0 0 0 0 0 -18 0 0 0 0 0
0 0 0 0 0 0 0 0 0 0 0 0 0 0 0 0 0 0 0 0 0 0 0 0 0 0 0 0 0 0 0 0 0 0 0 0 0 0 0 0 0 0 0 0 0 0 0 0 0
0 0 0 0 0 0 0 0 0 0 0 0 0 0 0 0 0 0 0 0 0 0 0 0 0 0 0 0 0 0 0 0 0 0 0 0 0 0 0 0 0 0 0 0 0 0 -3 0 0
0 0 0 0 0 0 0 0 0 0 0 0 0 0 0 0 0 0 0 0 0 0 0 0 0 0 0 0 0 0 0 0 0 0 0 0 0 0 0 0 0 0 0 0 0 0 0 0 0
0 0 0 0 0 0 0 0 0 0 0 0 0 0 0 0 0 0 0 0 0 0 0 0 0 0 0 0 0 0 0 0 0 0 0 0 0 0 0 0 0 0 0 0 0 0 0 0 0
Wind_Speed
16 16 15 13 10 12 13 14 21 21 22 21 23 21 20 18 19 20 20 23 26 26 28 1 9 8 9 11 11 3 5 8 12 14 15 15 16 16 17 18 19 19 19 20 20 21 21 21 20
17 17 13 16 10 11 12 18 20 22 21 24 23 22 20 19 17 20 25 25 30 31 30 30 17 12 10 12 11 4 5 9 15 17 16 16 17 18 19 19 19 20 20 20 20 20 21 21 22
18 15 17 8 9 10 12 21 23 22 23 22 22 17 19 20 18 27 22 30 31 31 30 28 28 21 15 13 11 10 10 12 14 16 17 17 17 17 17 17 18 18 19 19 20 20 20 21 21
19 17 15 8 8 6 16 24 23 22 22 19 20 21 16 17 21 24 28 31 32 30 30 30 29 28 25 15 10 8 6 10 9 15 15 16 17 17 17 17 18 18 18 19 19 20 21 21 21
18 17 11 7 7 17 20 23 24 23 22 21 20 20 19 19 20 26 30 31 31 30 29 29 28 27 27 27 26 25 24 23 9 17 18 18 17 17 18 18 18 18 18 19 20 20 20 20 21
19 18 8 4 10 18 21 25 24 23 21 21 20 21 20 19 25 27 29 29 29 29 28 27 27 26 26 26 26 25 25 25 23 21 20 18 19 19 19 18 18 18 18 18 18 19 19 20 20
21 16 11 7 9 17 23 25 23 22 21 21 21 21 18 22 25 27 28 28 27 26 26 26 25 25 25 24 24 24 24 23 23 21 20 19 19 18 18 18 18 17 17 17 18 18 18 19 19
19 16 14 17 2 19 23 24 21 22 21 18 19 19 20 23 23 24 26 26 26 25 25 24 24 23 23 22 22 22 21 21 20 19 18 18 17 17 16 16 16 17 16 17 17 17 17 17 17
21 16 12 19 15 21 22 24 20 20 20 20 21 19 17 21 20 22 24 25 25 25 24 24 23 22 21 20 20 19 19 18 17 16 17 17 17 16 16 15 16 16 16 16 16 16 16 16 16
20 17 21 22 18 18 23 23 24 21 21 20 20 20 19 21 21 22 23 24 23 24 23 23 22 21 20 19 18 17 16 15 15 15 15 15 15 15 15 14 14 15 15 15 15 15 15 15 15
20 20 19 19 18 14 7 18 19 22 20 19 19 19 19 20 20 21 22 22 22 22 22 22 21 20 19 18 17 16 14 13 13 12 12 12 13 13 13 13 13 13 13 13 14 13 14 14 14
19 20 18 15 15 15 10 12 19 22 17 14 19 15 16 19 20 20 21 22 21 21 22 22 21 20 20 18 17 15 14 13 12 11 11 10 11 11 11 11 11 11 11 12 12 12 13 13 13
21 20 18 15 14 15 14 19 20 22 22 22 18 10 14 17 18 18 19 20 20 21 21 20 20 20 18 17 15 14 12 11 10 10 9 9 9 9 9 9 9 9 10 10 10 11 12 12 12
21 19 19 19 17 16 20 22 20 16 18 19 12 9 9 14 16 14 16 19 19 19 18 18 17 16 15 15 13 12 10 9 9 8 8 7 7 7 7 7 7 7 8 8 8 9 10 11 11
18 19 21 22 21 20 20 27 29 24 22 23 17 17 16 10 6 17 15 16 16 17 14 14 14 13 13 13 11 10 9 7 8 8 7 7 7 6 6 6 6 5 5 6 6 7 8 9 10
20 21 22 23 20 20 19 27 20 19 19 22 21 18 19 22 3 18 14 13 10 11 13 11 8 9 10 9 8 8 7 6 6 6 5 6 6 5 4 4 4 4 3 3 3 4 5 6 7
22 25 24 22 21 21 19 22 20 19 16 14 17 21 20 23 24 29 27 18 10 9 7 7 8 8 9 8 7 6 6 5 5 3 4 5 4 4 3 3 2 1 1 0 1 2 3 4 5
24 23 23 24 22 22 20 24 21 22 22 22 23 25 26 25 26 27 25 16 5 6 6 6 7 7 7 6 6 4 4 4 3 3 3 4 3 3 4 4 4 4 4 4 3 4 5 8 7
21 22 24 21 21 21 25 27 29 28 25 27 27 26 29 30 27 26 25 25 20 11 7 8 7 7 7 7 7 7 8 6 6 6 6 6 6 5 6 7 7 7 8 9 8 9 9 11 12
22 21 23 21 21 22 24 29 28 26 24 24 26 27 27 27 26 23 22 22 21 20 16 12 10 10 9 9 9 8 9 9 9 10 10 9 9 10 10 10 10 10 11 12 13 12 15 16 13
26 26 24 24 21 22 26 30 26 21 20 21 20 19 21 20 19 19 18 19 20 19 20 18 15 13 13 13 14 14 17 18 14 14 13 12 11 12 13 14 14 14 14 16 16 16 17 20 18
30 24 21 22 25 30 22 30 22 20 18 17 17 16 16 17 16 16 16 17 19 19 18 17 18 17 16 15 15 14 16 16 17 18 18 17 15 15 15 16 17 18 18 19 18 18 19 20 24
27 20 22 23 26 27 27 28 24 18 18 17 16 14 13 13 13 13 15 16 18 18 19 18 17 17 18 17 15 16 18 21 22 22 21 20 20 18 18 18 19 20 21 21 21 21 21 22 25
14 17 18 21 24 34 29 27 27 22 17 15 12 10 10 10 11 13 14 16 17 19 19 19 19 19 19 17 16 17 18 20 22 23 23 23 23 22 21 22 22 22 22 22 23 23 24 25 26
22 20 28 31 31 34 25 25 26 17 15 10 7 8 9 10 11 12 14 16 18 20 20 21 21 21 20 19 18 19 20 21 22 24 26 26 26 25 25 24 25 26 25 25 25 26 26 27 28
24 25 28 34 34 31 24 29 24 20 14 8 9 9 8 9 11 13 15 16 18 20 21 21 22 22 22 22 21 20 20 22 23 24 25 26 27 27 28 28 29 29 28 27 27 28 28 28 29
29 32 23 26 27 30 28 27 23 16 11 9 9 8 8 10 11 13 15 17 18 20 21 22 22 23 23 23 23 23 23 23 24 25 26 26 28 29 30 29 30 30 31 30 29 29 29 28 29
28 22 29 29 36 39 33 32 28 18 13 12 10 9 10 11 13 14 16 18 19 20 21 22 23 24 24 25 25 25 25 26 27 28 30 30 31 32 33 33 32 33 32 32 32 33 32 31 31
29 32 30 27 31 35 37 35 27 17 14 12 11 10 11 12 14 15 17 19 19 20 22 23 25 26 26 27 27 28 29 29 30 31 33 34 34 35 35 34 35 35 36 35 34 34 34 35 35
33 34 32 35 36 35 34 35 25 15 12 11 10 11 12 13 14 15 17 18 20 21 23 25 26 27 29 29 29 30 31 32 33 34 35 36 37 37 38 37 37 37 37 36 36 37 37 37 38
Wind_Direction
240 235 225 224 335 358 34 49 115 90 87 97 109 106 117 129 113 107 141 120 117 115 123 230 62 42 33 37 36 294 336 8 36 43 35 26 26 28 36 40 40 39 43 42 40 40 41 40 40
238 226 239 197 337 18 25 87 101 113 100 104 114 112 124 122 146 130 101 135 123 120 130 142 95 59 45 47 41 326 346 21 47 52 38 32 31 37 45 46 41 39 49 44 39 37 41 44 46
234 239 216 281 358 16 25 114 117 117 101 118 119 149 129 127 142 118 146 125 126 130 138 121 117 90 66 52 38 29 22 34 39 49 45 37 33 36 42 42 40 38 43 42 39 39 43 43 44
230 229 224 309 340 290 188 133 124 103 137 162 137 110 160 160 142 144 132 128 128 135 139 133 133 128 103 56 35 20 355 22 14 48 37 38 34 36 43 41 36 40 45 43 39 42 48 47 48
232 229 264 306 300 202 173 154 121 111 122 115 149 122 142 156 160 139 129 131 130 133 136 135 132 129 129 130 136 140 142 140 198 54 50 42 37 41 47 45 40 36 39 49 49 51 51 44 46
224 228 270 315 260 194 171 149 139 148 156 134 134 124 139 161 141 138 133 133 135 134 136 134 131 133 134 128 126 126 122 113 96 76 62 47 48 53 54 51 43 42 33 46 50 46 46 46 47
221 230 255 264 263 214 169 143 149 143 149 153 145 125 155 156 140 130 135 136 135 135 136 138 133 131 127 125 126 124 121 115 109 91 76 66 60 59 56 57 51 47 43 43 46 47 48 46 47
224 231 239 229 1 209 180 152 176 149 151 197 181 141 137 147 121 125 133 137 139 140 139 138 137 135 130 126 123 117 112 105 95 89 79 67 60 51 48 45 45 50 49 51 46 45 44 41 41
220 236 243 224 233 208 200 175 199 186 160 172 172 183 192 113 106 117 132 143 145 148 147 146 142 140 133 127 122 114 108 99 87 78 75 70 66 62 59 59 58 54 49 47 47 43 43 42 40
225 234 227 221 229 226 198 195 160 183 163 162 163 184 180 119 120 131 140 145 148 150 152 151 147 145 139 134 126 117 105 100 92 86 81 70 68 66 63 54 52 53 52 49 46 43 44 41 39
229 233 229 231 235 245 265 228 218 162 181 166 156 146 133 130 133 138 145 151 152 151 154 156 154 149 145 139 132 126 115 104 95 88 77 67 62 60 59 55 52 48 48 40 35 37 33 33 35
234 236 236 243 245 241 259 263 231 211 229 284 220 125 119 135 143 145 150 152 153 155 159 160 159 156 154 149 146 139 130 121 112 105 91 77 66 62 59 52 48 44 43 39 34 31 28 28 31
236 237 240 249 252 250 258 247 248 228 226 233 272 74 125 139 147 149 151 153 153 158 159 159 157 158 155 152 148 144 140 134 126 117 109 96 85 78 66 56 48 43 37 35 32 28 25 24 24
238 242 246 247 253 262 256 254 266 282 279 276 291 328 108 144 148 140 152 161 160 159 157 156 156 154 152 155 150 149 142 142 137 131 127 119 103 92 85 70 59 52 48 41 39 33 24 19 17
240 246 250 250 255 264 269 258 239 266 281 275 301 298 297 138 120 166 163 167 166 167 161 159 158 157 157 158 154 150 147 143 154 153 147 142 135 126 114 105 102 91 65 45 31 23 18 15 12
243 249 250 255 260 266 271 263 280 294 292 284 289 302 294 278 200 185 174 175 173 174 176 171 169 168 169 167 163 162 157 155 154 159 157 159 152 144 135 134 137 117 87 61 35 21 11 1 357
245 246 251 261 264 268 272 279 286 293 308 315 302 293 296 285 283 262 213 192 185 189 200 197 196 195 190 186 183 182 180 181 178 170 170 174 174 183 185 191 182 135 102 9 325 328 326 320 326
244 250 256 259 267 268 275 276 288 288 291 293 295 289 284 289 288 283 286 295 222 230 229 227 230 220 219 214 213 231 225 223 240 230 229 212 227 222 228 251 266 286 295 289 288 295 303 322 308
252 254 257 266 273 276 274 277 276 281 290 286 290 294 284 284 295 294 293 289 293 292 239 227 227 238 251 251 240 243 232 244 262 272 258 257 256 256 259 286 291 283 273 267 277 296 299 301 317
253 256 260 270 277 278 282 279 284 288 293 298 296 294 294 296 299 302 301 302 297 291 289 283 269 271 254 261 266 274 278 279 279 285 284 273 277 278 279 281 283 280 286 286 281 281 300 300 299
253 256 262 268 276 284 285 282 289 298 302 305 308 307 304 305 311 314 317 316 315 305 293 291 289 284 279 279 287 292 299 299 295 293 293 294 286 284 282 284 287 286 286 287 282 277 276 288 292
252 261 265 268 272 270 288 277 288 299 307 314 313 313 314 315 320 324 325 330 328 324 319 308 299 296 292 287 283 279 284 288 293 295 298 299 296 293 289 286 285 285 287 287 287 283 280 285 290
257 264 265 271 272 275 277 281 288 298 297 306 316 322 327 332 339 343 341 339 338 340 337 333 329 317 306 300 293 291 291 295 298 299 299 299 300 297 296 294 293 292 288 287 285 288 284 283 288
252 261 271 275 275 271 274 275 281 287 293 302 317 331 342 354 357 360 358 357 354 353 352 347 344 338 329 321 312 305 304 304 303 303 303 303 303 303 301 300 297 296 293 291 290 288 287 286 287
256 250 262 266 266 269 280 276 280 290 300 300 315 332 343 354 360 359 358 356 356 354 354 356 354 347 344 341 333 325 318 315 312 310 309 309 309 308 307 306 305 303 299 296 296 294 292 291 289
247 253 260 263 266 271 278 274 281 286 291 295 305 315 335 348 353 355 352 353 353 352 353 353 353 353 352 349 344 340 334 327 323 320 318 316 314 314 313 311 309 307 305 302 299 296 294 293 291
251 253 264 269 275 273 273 278 282 286 274 285 299 306 314 325 340 344 348 351 351 350 350 351 351 351 348 347 345 342 340 337 334 330 328 326 323 321 318 317 314 313 310 307 305 302 299 296 295
256 251 257 263 264 267 272 274 275 264 253 270 281 294 306 317 327 335 339 344 347 348 348 348 348 346 343 343 344 342 338 334 331 328 325 323 322 321 319 318 316 315 313 310 308 305 303 298 297
252 253 260 263 266 269 272 276 274 256 248 255 271 288 303 312 318 327 332 337 341 342 343 343 343 343 342 340 339 337 335 333 331 328 326 323 321 320 319 317 315 314 311 310 307 305 303 300 299
256 256 254 259 264 267 273 276 286 249 251 259 271 287 301 311 318 328 332 337 340 341 341 340 340 339 338 338 337 336 334 333 331 329 327 326 322 321 319 317 315 314 312 310 308 306 304 301 299